This is the latest recevied weather packets stored in our database for station/object 9M4GHZ-13. If no packets are shown the sender has not sent any weather packets the latest 10 day(s).
| Time | Temp. | Humidity | Pressure | Rain* | Wind** | Luminosity | Snow |
|---|---|---|---|---|---|---|---|
| 1777391404 | 25.56° C | 89% | 1009.3 hPa | - | - | - | - |
| 1777390806 | 26.11° C | 89% | 1009.4 hPa | - | - | - | - |
| 1777390205 | 25.56° C | 90% | 1009.1 hPa | - | - | - | - |
| 1777389604 | 25.56° C | 90% | 1009.5 hPa | - | - | - | - |
| 1777389005 | 25.56° C | 90% | 1009.7 hPa | - | - | - | - |
| 1777388405 | 25.56° C | 90% | 1009.7 hPa | - | - | - | - |
| 1777387804 | 25.56° C | 90% | 1009.2 hPa | - | - | - | - |
| 1777387205 | 25.56° C | 89% | 1009 hPa | - | - | - | - |
| 1777386606 | 25.56° C | 89% | 1009 hPa | - | - | - | - |
| 1777386005 | 25.56° C | 89% | 1008.8 hPa | - | - | - | - |
| 1777385406 | 25.56° C | 89% | 1008.6 hPa | - | - | - | - |
| 1777384806 | 25.56° C | 89% | 1008.5 hPa | - | - | - | - |
| 1777384204 | 25.56° C | 89% | 1008.7 hPa | - | - | - | - |
| 1777383605 | 26.11° C | 89% | 1008.5 hPa | - | - | - | - |
| 1777383005 | 26.67° C | 87% | 1008.6 hPa | - | - | - | - |
| 1777382405 | 26.67° C | 87% | 1008.2 hPa | - | - | - | - |
| 1777381805 | 26.67° C | 86% | 1008 hPa | - | - | - | - |
| 1777381204 | 27.22° C | 84% | 1008 hPa | - | - | - | - |
| 1777380605 | 26.67° C | 84% | 1007.9 hPa | - | - | - | - |
| 1777380004 | 27.22° C | 84% | 1008 hPa | - | - | - | - |
| 1777379404 | 27.22° C | 84% | 1008.1 hPa | - | - | - | - |
| 1777378805 | 27.22° C | 84% | 1008.1 hPa | - | - | - | - |
| 1777378204 | 27.78° C | 85% | 1007.9 hPa | - | - | - | - |
| 1777377604 | 27.78° C | 87% | 1007.5 hPa | - | - | - | - |
| 1777377004 | 27.78° C | 88% | 1007.5 hPa | - | - | - | - |
* Rain since midnight (hover to see other rain measurements)
** Current wind speed in m/s (hover to see current wind gust speed)